Wind_Speed
31 30 30 30 30 30 30 31 31 32 30 27 27 27 26 25 22 20 22 24 22 22 22 22 24 28 29 29 29 29 28 28 28 28 28 27 26 26 26 26 25 24 23 22 20 18 18 17 15 14 15 17 16 12 8 9 14 18 21 26 31 35 36 32 30 34 36 34 32 32 30 34 42 47 48 47 44 43 39 29 24 21 18 15 8 4 11
31 30 30 30 30 30 30 31 32 32 32 30 29 29 28 27 23 20 22 24 23 23 23 21 23 25 26 28 30 30 30 29 29 28 27 26 24 24 27 26 26 26 25 24 22 19 17 17 15 15 18 20 18 14 10 7 9 14 20 24 27 31 36 32 22 18 24 29 30 33 34 33 35 40 43 45 46 44 39 35 32 26 25 25 15 7 14
31 31 31 30 30 30 30 31 31 32 32 31 30 30 30 28 23 20 21 21 21 22 23 23 23 24 25 28 29 29 29 30 29 28 28 25 21 21 23 22 23 25 26 27 28 25 21 20 19 20 23 23 19 16 15 12 8 7 15 24 28 30 36 36 24 12 10 14 19 28 35 35 34 34 33 35 40 41 38 35 30 25 26 30 24 17 20
32 31 31 31 30 30 30 30 30 30 31 30 29 29 29 27 24 21 18 17 17 20 23 23 24 25 27 28 28 28 29 28 27 26 27 24 20 21 23 21 21 23 25 27 29 27 24 23 25 26 26 25 22 19 18 15 9 8 14 23 30 33 36 38 36 31 28 26 28 32 32 30 31 32 29 28 29 32 36 35 33 31 29 31 33 30 26
32 32 31 31 30 30 29 29 29 29 30 30 28 27 27 26 24 23 19 15 14 17 21 22 23 25 26 26 25 25 26 26 26 26 25 23 21 22 23 22 22 23 24 25 27 27 25 25 29 30 28 26 23 23 22 16 9 10 16 19 31 34 35 37 38 39 41 41 40 37 33 30 30 31 30 29 27 27 30 33 36 36 28 26 34 36 30
32 31 31 31 30 29 28 28 28 28 29 29 28 27 26 25 23 22 21 19 16 15 18 21 23 24 23 23 23 23 22 22 23 24 24 23 21 21 23 22 22 22 21 22 26 27 25 27 31 31 30 28 24 24 25 17 10 11 15 12 31 37 36 37 38 38 40 43 43 42 40 36 32 29 28 28 28 29 31 33 36 38 33 32 36 35 32
32 31 31 31 30 29 28 28 28 27 27 28 28 26 25 25 24 21 21 23 22 18 17 19 22 22 22 22 22 21 21 21 21 22 24 23 20 20 23 21 18 19 20 20 25 29 28 28 31 32 31 27 23 24 25 18 13 14 15 8 21 36 38 37 38 40 41 40 40 43 45 44 41 38 33 28 25 26 29 32 35 37 38 40 41 39 37
32 31 31 30 30 29 28 27 27 26 26 27 27 26 24 25 24 22 21 23 22 20 19 21 22 22 21 22 22 21 21 21 21 23 24 24 21 19 21 21 18 18 20 21 25 27 27 27 27 30 32 29 24 22 21 17 14 15 13 8 5 25 38 38 37 39 42 42 42 42 43 44 46 47 45 40 33 29 29 30 32 36 37 37 39 41 41
33 32 32 31 31 30 29 28 27 26 25 25 26 26 25 24 24 22 22 23 21 19 19 20 22 21 20 21 21 21 21 21 22 25 25 24 23 21 19 20 20 20 20 20 22 22 22 23 24 26 30 32 28 23 19 16 14 13 11 6 8 11 24 34 35 32 34 40 40 41 45 46 46 49 50 47 43 40 37 33 32 34 34 35 39 42 42
35 34 33 33 33 32 30 29 28 27 25 24 25 25 25 23 23 21 22 23 21 18 18 20 20 20 19 19 19 20 20 21 23 24 24 24 23 21 19 18 20 23 20 17 19 21 22 23 22 24 29 32 32 28 22 18 16 16 13 12 16 16 15 23 29 29 33 39 37 37 40 35 35 45 49 47 47 45 43 41 38 36 35 36 40 43 42
34 34 34 34 33 33 32 30 30 29 27 25 24 25 24 23 22 20 21 24 21 18 18 19 19 19 18 19 20 19 20 21 20 21 23 22 20 20 19 17 19 22 20 16 16 19 23 24 23 24 28 33 38 34 27 23 22 19 16 19 23 21 19 22 22 23 32 40 39 33 25 17 24 41 45 43 45 46 45 45 43 41 39 38 41 43 41
31 32 33 33 33 33 32 31 30 29 28 27 24 24 24 23 21 19 20 23 22 18 18 18 18 18 17 18 20 19 19 20 19 20 23 21 18 18 18 17 19 20 19 18 18 18 21 24 26 27 28 32 41 40 32 28 24 19 18 23 26 25 23 24 22 20 24 30 29 19 11 17 33 42 40 39 41 43 44 44 44 44 43 42 42 42 40
28 29 30 30 30 31 30 29 28 28 28 27 25 24 24 23 22 19 19 23 23 19 17 18 18 17 17 18 19 17 17 20 21 21 22 21 21 19 16 17 20 20 19 20 19 18 19 21 25 30 31 31 37 43 41 35 30 25 23 24 25 28 26 23 21 20 18 17 16 11 11 25 37 37 37 39 38 36 35 35 38 43 43 41 40 38 35
28 28 27 26 26 27 26 26 26 26 26 26 25 24 24 24 23 20 19 22 24 20 17 17 17 16 17 17 18 16 15 18 21 22 21 21 23 21 18 17 19 19 20 21 20 18 18 18 20 28 31 27 28 39 47 46 39 31 25 23 26 30 28 24 21 20 17 14 15 15 16 21 25 28 32 35 32 31 30 29 31 35 37 38 37 32 28
28 26 24 24 23 23 22 22 22 22 23 24 24 23 24 25 24 22 20 22 24 21 18 17 16 16 16 15 15 15 15 16 20 22 22 22 22 22 20 18 18 18 19 21 21 19 16 15 16 19 22 23 24 30 39 45 44 36 26 24 26 26 22 21 19 18 17 13 10 10 10 11 17 23 26 30 31 29 28 27 24 23 25 28 28 25 21
25 24 23 22 22 21 20 19 19 19 19 21 22 22 23 25 25 23 21 20 23 22 16 13 14 14 14 14 13 13 14 15 17 21 23 23 21 20 20 19 18 19 20 20 20 17 14 15 16 16 17 22 23 22 25 33 41 40 29 23 24 22 18 15 15 17 18 16 11 8 7 12 19 24 25 28 28 25 25 23 16 13 14 16 17 17 16
23 22 21 20 20 19 18 17 17 17 16 18 20 20 22 25 25 25 23 21 24 24 17 13 14 14 11 11 13 13 13 13 15 18 21 23 21 19 19 19 18 17 18 19 18 16 15 15 16 17 18 19 20 21 23 26 32 35 30 24 23 22 18 14 14 17 14 17 15 8 7 13 22 27 28 28 26 28 24 15 12 15 15 13 11 9 7
21 21 20 19 19 18 16 15 15 15 15 16 18 19 20 24 25 25 24 24 27 26 19 15 18 18 13 11 12 13 13 13 13 15 18 21 22 21 17 16 14 13 14 16 16 17 18 19 18 17 16 16 16 18 23 25 26 27 26 22 20 18 15 14 13 14 8 9 12 9 8 16 24 28 29 28 26 25 20 14 16 19 18 15 11 7 6
19 19 18 17 16 15 14 13 14 14 14 16 18 18 19 22 24 25 24 24 27 26 19 15 16 15 15 16 15 13 13 14 13 13 14 17 23 24 17 12 12 12 12 13 14 16 19 20 20 18 16 15 14 13 16 23 25 23 21 19 15 10 7 11 12 11 8 1 7 10 12 17 23 24 25 27 25 21 18 20 23 22 21 22 18 13 11
17 17 17 15 14 13 12 12 13 14 15 16 19 18 18 21 24 25 24 23 26 25 18 14 14 13 13 16 16 14 15 15 12 12 11 13 20 24 19 12 11 12 12 10 9 12 14 15 17 17 14 15 17 13 12 20 24 22 21 19 14 6 1 6 8 7 7 6 4 4 7 13 18 20 21 22 20 18 21 27 29 26 26 26 24 19 18
15 15 15 14 13 12 12 11 13 14 15 16 18 18 17 19 23 25 23 23 26 23 14 11 15 17 15 15 15 16 17 14 11 12 12 11 16 19 17 13 11 11 11 9 6 8 10 10 14 16 13 14 17 13 11 17 23 23 23 22 19 12 5 6 6 5 5 6 8 5 3 8 12 16 19 18 16 18 21 26 30 30 28 26 26 25 24
15 14 14 13 12 11 12 12 13 15 14 14 17 17 15 17 22 24 23 24 25 22 13 9 14 19 19 17 16 17 17 15 12 13 13 11 12 14 15 14 12 10 11 7 4 6 8 7 11 16 15 15 18 15 13 17 21 23 24 24 22 19 14 13 12 7 2 8 11 12 13 16 16 17 19 19 21 22 21 21 26 29 27 25 26 28 28
15 14 14 13 11 10 11 11 12 13 13 13 16 16 13 15 20 23 23 23 23 20 15 13 16 19 20 18 18 18 17 16 13 11 10 10 11 14 16 16 12 11 11 8 4 5 7 7 9 15 16 15 16 16 15 16 18 21 24 23 22 22 19 19 20 12 5 15 19 20 23 26 26 25 23 22 23 25 22 20 22 25 25 23 23 24 25
14 14 13 12 11 10 10 10 11 11 12 13 15 15 13 13 17 21 22 21 20 19 16 14 15 16 17 19 21 20 17 14 12 11 12 12 12 13 13 13 12 12 12 10 6 4 6 6 7 13 16 14 13 13 13 13 15 20 23 21 19 21 20 19 21 20 13 12 17 20 22 25 28 28 27 25 24 24 22 19 18 19 20 20 20 20 22
13 13 12 11 10 10 10 10 11 11 13 14 15 15 13 12 15 18 19 18 18 19 16 10 10 15 19 22 23 20 17 15 15 13 12 12 11 10 10 12 14 14 14 12 8 5 5 5 6 12 15 14 13 12 9 9 13 17 18 18 18 20 21 22 24 25 22 17 14 11 9 14 21 23 21 20 20 19 17 14 13 13 14 15 15 16 17
11 11 11 11 10 10 10 11 11 12 13 14 15 16 14 13 14 15 16 16 16 17 15 8 9 15 20 21 21 20 19 17 15 12 11 11 12 13 13 14 15 15 15 15 11 7 6 4 5 9 10 9 11 10 7 8 12 14 16 19 19 17 20 25 28 28 27 26 26 24 18 13 13 13 10 9 8 8 8 8 8 9 9 10 11 11 11
10 9 9 9 9 9 10 10 11 12 12 13 14 13 12 12 13 14 14 14 13 13 11 6 8 13 17 18 20 20 18 15 12 11 10 11 13 15 16 16 15 15 15 16 13 9 6 7 3 5 6 5 9 11 10 9 11 12 17 22 19 15 20 28 31 33 34 35 34 31 26 22 19 15 11 9 10 11 12 13 14 13 12 12 14 14 14
8 7 7 7 7 8 8 9 10 11 11 11 11 9 9 11 12 12 11 11 10 10 8 4 7 11 14 17 20 19 15 12 11 10 9 12 14 15 16 17 17 16 15 15 15 11 8 7 4 3 5 6 8 12 14 11 9 10 15 18 16 15 22 29 31 33 36 37 36 32 29 28 26 22 18 14 14 15 17 18 18 17 17 18 20 22 21
7 6 6 6 6 7 7 9 10 10 10 9 8 7 7 8 9 9 8 8 8 8 7 4 5 10 14 17 18 17 14 12 11 10 11 13 15 15 15 16 16 16 15 14 14 13 10 7 4 3 6 7 7 10 12 10 6 7 12 15 14 15 21 26 28 31 34 34 33 29 25 25 26 25 22 20 20 19 19 19 19 20 22 24 26 26 25
6 5 5 6 6 6 8 9 9 8 8 7 6 6 6 6 6 6 6 6 5 5 4 1 4 8 13 15 14 14 13 12 12 11 12 14 15 14 13 12 14 16 15 14 15 14 11 8 4 3 5 6 6 7 8 7 5 6 11 14 15 16 22 25 26 29 31 29 28 25 23 24 27 28 27 26 25 23 21 20 21 23 24 24 24 22 21
5 5 5 5 6 7 9 8 8 8 7 6 6 8 7 4 3 5 5 5 4 3 2 1 5 9 11 12 11 10 10 11 11 11 12 14 16 16 13 11 11 14 14 14 15 14 12 9 6 3 4 6 7 6 6 7 6 4 6 11 14 16 22 27 28 28 28 26 26 26 26 26 28 28 27 26 24 22 20 19 20 20 19 17 16 17 18
4 4 5 6 6 7 8 8 7 7 6 6 8 10 9 5 3 4 5 5 5 3 2 1 7 10 9 9 8 6 7 9 10 10 10 13 15 17 14 11 10 12 14 15 16 17 14 9 5 5 8 9 10 8 7 9 8 4 4 8 10 13 22 30 32 31 31 28 26 28 29 28 26 25 23 21 18 15 14 14 13 14 13 12 12 13 14
5 5 5 7 8 8 7 7 6 5 5 7 9 9 8 5 5 6 6 6 4 3 2 3 8 9 8 6 6 6 6 8 8 8 9 11 15 15 13 10 11 12 14 16 18 18 15 8 3 7 11 10 8 10 11 10 9 7 5 6 7 11 22 31 30 29 30 29 26 25 26 26 24 21 18 17 15 11 9 8 9 11 11 10 11 12 12
5 6 6 7 7 6 5 5 4 4 6 10 12 12 9 6 4 5 6 6 5 4 3 5 7 8 8 7 7 8 8 7 7 7 8 10 13 13 10 9 10 10 11 15 18 17 14 10 5 9 14 11 10 14 14 12 10 11 10 9 10 12 20 27 26 24 24 23 20 19 18 18 17 15 14 14 11 8 7 8 9 9 9 8 9 11 12
3 4 5 5 4 2 3 3 3 4 8 11 13 11 8 7 6 6 7 6 6 5 4 5 7 9 9 9 10 11 10 8 7 7 7 9 11 11 9 9 9 9 10 14 16 15 15 13 10 11 14 15 15 17 18 15 12 10 10 12 13 12 12 16 18 17 14 12 11 12 11 9 7 7 8 7 7 7 8 10 10 9 8 9 10 11 13
1 2 2 2 1 0 0 0 1 4 8 9 9 6 4 5 6 7 7 6 6 5 4 4 6 7 7 9 12 12 9 9 10 10 10 11 12 13 11 10 10 11 11 13 16 17 16 16 15 16 17 18 20 23 23 20 18 15 14 15 16 13 11 12 13 13 14 15 15 13 12 10 8 8 8 8 9 9 10 10 11 11 12 13 15 16 18
1 2 2 3 3 3 4 4 4 6 8 7 5 3 2 3 4 5 5 6 7 6 4 3 4 5 5 7 11 11 10 10 12 12 12 13 13 13 12 11 12 13 12 13 16 18 16 16 18 20 20 21 25 26 24 21 22 21 19 19 19 18 17 17 17 16 15 14 13 13 13 12 11 11 10 10 11 11 12 13 14 16 18 20 21 23 24
3 3 4 6 7 7 7 6 5 6 6 4 2 2 2 3 3 3 3 4 4 2 2 2 3 4 5 8 10 11 12 12 12 13 13 12 12 12 13 12 13 14 15 16 17 17 17 18 20 22 23 23 24 25 24 22 22 21 20 20 20 19 17 17 15 13 11 10 10 10 9 9 9 9 10 11 13 14 16 17 19 20 22 23 24 25 25
5 5 6 8 9 8 6 5 5 4 4 3 4 4 4 5 5 4 4 4 3 3 2 1 2 1 4 9 11 12 14 15 14 15 14 12 12 13 13 13 14 16 20 21 18 17 20 23 23 24 24 22 21 22 22 21 20 19 17 16 15 14 12 12 11 9 9 9 8 8 8 9 10 11 13 15 16 18 19 20 22 23 23 24 24 25 24
7 7 8 9 9 8 7 6 7 7 7 7 8 7 7 7 8 7 8 7 6 5 3 3 2 2 3 8 10 11 13 16 17 17 15 11 11 14 15 15 16 18 20 20 16 16 21 26 26 25 24 20 17 18 19 17 16 15 13 11 10 9 7 7 7 6 6 6 7 9 11 12 14 15 16 17 18 19 20 21 22 23 24 25 26 27 27
8 9 10 11 10 10 10 10 10 10 10 10 10 9 9 9 9 9 9 9 8 7 3 4 4 7 6 6 8 9 11 14 15 15 14 11 11 14 18 19 19 18 19 20 19 20 24 26 26 24 22 19 16 15 15 13 12 11 10 9 8 6 5 4 4 5 7 9 11 13 14 16 17 17 18 18 19 20 21 22 23 24 25 26 27 28 29
10 11 12 12 11 11 11 11 10 10 9 9 9 9 9 9 9 9 9 9 8 5 2 6 8 13 10 8 11 12 13 15 15 14 12 11 11 14 17 19 18 16 18 21 23 25 26 26 24 21 19 17 15 13 12 11 10 9 8 8 6 4 4 5 6 8 11 12 13 15 16 17 17 18 19 20 21 22 22 23 24 25 26 27 27 27 27
12 11 11 11 11 11 10 10 10 10 9 8 8 8 8 8 8 9 9 8 7 5 5 6 10 13 8 10 13 13 12 13 16 14 10 10 11 12 14 16 17 18 20 22 24 26 26 24 22 20 17 15 14 12 11 10 9 7 6 6 5 5 6 8 9 11 12 14 15 15 16 17 17 18 19 19 19 20 20 20 20 21 21 21 21 20 19
13 11 10 10 11 11 11 11 11 11 10 10 10 9 8 9 10 10 10 9 7 6 8 7 10 13 8 7 11 11 9 11 15 14 9 8 8 9 10 16 20 21 22 22 23 25 25 23 20 19 17 15 13 12 10 8 8 6 5 5 5 6 7 9 10 11 13 14 14 14 14 14 15 15 15 15 16 16 15 15 14 14 13 13 13 12 12
14 13 12 12 11 11 11 12 12 13 13 13 12 11 10 11 12 11 11 10 9 8 9 8 9 11 8 4 7 10 10 11 16 15 8 7 5 5 8 18 21 20 20 23 24 23 22 21 19 18 17 15 13 12 9 7 6 4 3 3 4 6 8 9 10 11 11 12 12 13 13 13 13 12 12 12 12 11 11 10 10 9 9 9 8 8 8
15 15 15 15 15 14 14 14 15 15 15 14 12 12 12 13 13 11 11 11 10 9 8 8 9 10 7 3 5 10 11 13 17 14 7 6 6 6 10 17 18 16 18 23 23 20 18 18 16 16 16 15 13 11 8 6 4 1 1 3 4 6 7 8 9 10 10 11 11 11 10 10 10 10 10 9 9 8 7 6 5 5 5 5 6 6 6
15 15 16 16 16 15 16 17 17 16 16 15 14 12 11 12 12 11 10 10 10 10 9 7 7 7 5 3 6 11 12 12 14 13 8 7 9 9 9 11 13 15 18 21 21 18 17 16 15 15 14 13 11 10 8 5 3 2 1 3 4 5 7 8 8 9 9 10 9 8 6 6 6 6 6 6 5 4 4 3 3 4 5 7 8 8 8
15 16 18 19 18 17 17 18 18 17 15 15 15 14 12 11 12 13 11 9 8 8 7 6 6 6 6 5 9 14 15 13 12 12 9 7 9 9 7 9 14 19 19 18 17 17 16 14 14 14 13 11 10 9 7 5 4 2 1 2 3 4 5 6 7 7 8 8 7 5 4 4 5 6 6 5 3 1 2 3 4 5 6 7 8 8 8
18 19 20 22 22 21 20 19 18 17 15 13 13 13 12 12 13 13 11 8 7 6 5 5 6 7 8 8 10 13 14 13 12 10 8 7 8 9 9 11 17 20 18 15 14 16 15 13 12 12 11 10 10 8 6 5 4 2 2 2 3 4 4 5 6 6 6 6 5 4 4 4 6 7 8 7 5 2 2 3 4 5 5 6 6 6 6
20 21 21 20 20 19 17 16 15 14 12 10 10 9 8 9 9 9 8 8 7 6 5 6 7 7 8 9 10 12 13 14 12 11 10 10 10 11 14 15 17 16 14 13 13 13 13 11 10 10 10 10 9 8 6 5 3 2 2 3 3 4 5 6 6 5 5 5 4 4 4 4 5 6 7 7 6 4 3 4 4 5 6 6 6 5 4
20 20 20 20 19 18 16 15 15 15 13 12 11 11 9 9 9 9 8 8 7 5 5 7 8 7 8 10 11 12 12 12 13 14 16 15 13 15 18 18 16 14 14 13 12 11 11 9 8 8 9 9 8 7 5 4 2 2 2 3 4 5 6 6 6 5 5 4 5 5 5 5 5 5 5 5 5 5 4 4 4 5 5 5 5 5 5
19 18 18 17 17 16 15 15 15 15 15 14 13 13 12 12 12 12 10 8 6 5 6 7 8 8 9 11 12 12 12 12 15 18 19 18 17 17 18 17 15 13 12 11 10 9 8 7 6 6 7 7 7 6 4 3 2 1 1 2 3 4 5 6 6 6 5 5 5 5 5 6 6 6 6 5 5 5 5 5 5 5 6 6 6 6 5
Wind_Direction
290 289 288 288 287 288 289 289 290 289 286 282 280 281 281 278 273 270 265 262 260 256 250 245 243 244 243 242 240 237 238 241 242 243 245 247 248 247 247 247 249 251 253 259 263 261 265 264 253 251 254 245 237 230 221 219 225 237 250 250 239 229 225 228 233 237 240 240 237 233 227 225 226 229 232 232 234 236 234 237 242 236 227 221 218 240 228
290 288 287 287 287 287 288 289 290 290 290 287 283 282 282 279 274 269 267 265 261 257 254 249 248 250 248 243 238 235 236 239 241 242 245 248 251 249 247 246 246 247 249 253 254 250 256 258 245 238 243 242 237 233 235 248 242 234 240 249 246 230 221 222 225 229 236 241 246 245 238 231 226 227 228 230 233 236 236 239 242 238 233 229 221 219 235
289 287 287 286 286 287 288 289 290 291 290 290 288 286 286 284 279 272 268 267 262 255 253 250 246 248 248 244 240 238 238 240 241 244 247 247 246 245 245 242 240 241 243 244 244 240 241 248 247 241 239 236 235 236 240 244 252 259 244 240 245 241 227 222 219 210 214 226 234 237 236 236 236 233 229 229 230 231 233 234 229 228 233 231 225 229 242
288 287 286 285 285 285 287 288 289 290 290 289 289 288 288 288 284 274 266 266 262 253 250 249 246 245 246 246 245 244 243 242 241 243 247 247 243 242 244 240 236 236 236 238 241 237 232 239 247 248 242 234 230 235 243 241 241 288 274 240 236 242 235 226 224 225 228 232 233 235 236 238 238 235 233 231 227 228 233 231 225 226 230 229 232 240 244
287 287 286 285 285 285 286 287 287 288 289 288 288 287 287 287 285 278 270 264 256 248 246 246 245 246 248 248 248 248 249 248 246 245 249 251 246 244 246 243 239 237 235 238 244 242 237 237 241 244 241 234 233 235 240 243 246 296 299 248 227 234 236 230 229 231 234 237 238 239 241 243 240 236 234 232 227 229 233 231 230 231 228 227 238 242 243
286 286 285 285 285 285 285 285 286 287 287 287 287 286 284 283 281 279 274 265 254 244 243 244 242 242 246 248 247 246 248 250 250 249 250 250 248 247 247 243 240 240 241 249 254 253 251 243 235 237 240 239 239 237 235 236 243 288 315 259 219 225 234 234 232 234 237 239 239 240 243 247 246 242 237 235 234 235 237 238 239 238 234 237 244 245 246
285 285 285 284 284 284 284 283 284 285 285 285 284 283 282 280 277 275 271 266 262 254 247 246 243 239 242 250 250 247 246 246 247 248 250 249 247 249 248 241 236 236 237 249 258 255 254 249 234 229 234 236 242 246 239 230 231 266 308 298 216 220 231 235 236 238 239 240 240 241 243 246 248 248 246 243 241 243 245 247 247 245 245 248 251 252 253
285 284 284 284 283 283 282 283 283 284 284 283 282 280 278 277 276 274 268 264 264 262 254 251 250 244 243 251 253 248 246 245 244 246 250 251 249 250 251 244 235 230 229 240 255 254 251 250 239 230 230 229 235 250 251 244 244 256 280 322 238 224 229 234 238 239 238 240 241 242 242 245 247 250 250 248 247 251 254 253 249 245 246 250 250 251 254
284 283 282 281 281 281 281 282 283 284 283 281 280 278 276 275 274 274 270 265 262 262 257 254 255 253 249 252 253 248 246 246 246 247 250 252 253 255 258 252 239 231 227 237 252 254 247 246 243 240 238 233 234 247 255 256 263 263 260 310 335 268 240 238 239 239 240 241 242 243 243 243 246 248 249 248 247 250 253 254 252 247 246 248 247 249 253
281 280 279 279 280 280 282 283 283 283 282 279 276 275 274 274 272 272 272 268 262 259 257 254 255 256 254 253 251 246 242 243 248 251 251 252 255 256 257 254 244 235 231 237 249 249 242 240 241 246 243 233 232 244 254 255 264 273 277 300 315 310 289 262 248 243 245 246 245 244 241 238 240 244 247 248 248 249 252 255 258 258 256 253 248 248 252
281 279 278 278 280 281 282 283 282 281 280 277 274 272 270 270 270 270 271 270 266 262 259 255 252 253 252 252 252 247 240 238 242 249 250 248 248 249 247 247 245 239 235 240 250 247 240 236 238 247 244 229 224 234 248 254 257 268 284 300 302 300 301 293 267 244 244 247 246 243 236 227 238 245 247 250 249 248 251 254 256 259 261 261 258 254 253
285 283 280 278 279 281 282 281 280 278 277 274 270 267 266 266 266 265 268 270 269 265 261 258 255 252 249 248 252 249 241 235 234 240 244 241 233 233 239 242 243 240 236 240 248 248 244 239 239 245 247 233 225 229 239 248 252 259 274 287 293 290 290 292 279 257 253 250 241 234 229 235 244 247 249 250 250 250 252 254 255 258 259 262 262 256 247
285 284 281 279 278 279 280 280 277 274 272 271 268 263 261 261 261 260 263 268 269 269 266 260 256 255 254 253 255 253 242 234 231 232 236 235 226 224 232 239 240 239 236 236 240 242 244 243 240 242 243 237 229 228 232 240 248 258 268 273 279 284 289 288 275 265 263 250 226 216 240 244 244 246 248 247 249 250 248 245 248 253 255 255 254 248 240
282 282 282 280 278 278 279 278 274 269 267 266 265 261 256 256 257 256 257 264 268 270 267 262 256 255 258 259 259 256 242 233 232 229 226 227 226 226 232 238 238 236 233 231 235 241 243 241 240 240 239 235 232 231 232 236 244 256 272 276 272 276 283 279 268 260 257 244 220 215 233 240 235 236 241 241 242 244 240 232 233 240 242 242 241 237 234
283 283 282 280 278 278 278 276 272 267 263 261 261 259 254 252 254 254 254 261 267 268 267 265 263 258 255 255 257 255 243 234 234 229 220 219 224 226 231 236 236 236 234 233 236 241 240 235 233 235 230 223 224 231 235 238 242 249 266 279 273 272 275 272 270 265 252 235 203 195 212 215 209 215 226 233 235 233 225 214 209 215 220 222 219 211 205
286 285 283 281 279 277 277 275 272 267 263 259 258 256 254 252 252 252 251 256 263 265 263 261 262 260 253 243 241 246 243 236 237 231 219 215 220 225 230 236 238 241 243 241 237 232 227 229 231 234 232 222 219 223 233 241 246 249 257 270 271 268 266 266 281 284 258 226 192 178 192 195 197 200 210 221 217 198 190 190 174 161 177 185 180 178 179
287 286 284 282 280 277 274 272 271 267 263 261 258 255 254 253 251 251 250 251 257 259 255 254 257 260 255 236 226 233 240 237 240 236 222 215 218 222 226 232 239 245 247 243 233 223 220 225 227 231 235 230 224 220 221 232 244 250 257 266 268 267 261 260 292 305 268 216 193 180 169 178 188 191 195 197 182 167 172 176 145 139 149 148 150 168 181
288 286 284 280 277 275 269 261 262 263 262 262 260 256 254 253 252 252 251 250 255 258 256 254 254 255 256 242 222 222 232 233 237 238 227 220 219 219 219 228 236 242 242 235 227 222 222 223 225 231 234 228 221 215 212 216 228 240 251 262 269 271 260 254 285 317 305 203 180 165 159 172 180 185 187 181 169 168 176 165 144 145 143 136 146 176 212
289 285 283 279 277 277 270 256 253 258 260 262 262 258 255 253 252 253 251 251 256 259 253 247 250 249 247 242 229 217 223 229 232 235 229 221 219 219 222 226 228 227 224 221 220 221 219 215 217 227 233 225 216 209 204 205 212 223 234 243 260 281 265 246 270 312 335 315 157 151 157 168 176 185 187 179 172 174 171 155 152 155 147 142 148 155 161
287 284 283 279 274 275 270 256 249 251 254 260 263 260 255 253 252 252 252 252 257 259 254 244 241 232 230 236 230 216 217 223 227 230 224 212 214 220 223 225 225 220 211 210 221 224 221 213 207 212 218 210 207 212 207 199 201 207 213 222 243 277 245 223 259 302 340 9 64 133 160 161 166 177 182 179 176 174 160 150 152 157 155 153 157 159 158
285 282 278 275 271 269 267 261 254 252 253 259 265 263 256 252 252 253 252 252 257 261 259 245 235 228 229 235 227 215 215 217 221 227 219 201 208 217 218 218 223 211 200 209 230 227 228 226 210 208 209 200 200 208 207 197 199 205 209 220 238 248 217 199 240 298 345 37 55 60 129 147 157 172 175 170 164 162 156 151 152 157 160 163 166 167 168
282 278 271 268 267 263 264 264 259 256 257 260 264 265 259 251 252 253 252 252 258 263 261 244 233 228 227 230 223 215 214 209 209 221 217 201 206 210 203 203 203 179 172 191 212 212 227 238 215 206 205 198 199 205 202 196 198 202 205 214 227 235 234 233 242 267 25 94 95 95 109 120 132 154 164 156 147 149 156 161 160 159 161 166 167 164 164
278 275 268 261 257 257 262 263 260 260 262 263 265 266 262 251 250 254 255 255 261 267 262 246 233 223 220 223 221 214 208 202 201 215 219 207 199 191 186 190 187 163 161 172 165 185 216 231 217 206 201 197 201 206 202 195 193 196 200 205 214 222 227 229 231 231 137 109 108 108 115 122 127 136 144 146 146 149 155 164 168 165 163 168 172 169 168
275 273 267 259 255 257 259 258 258 260 262 264 266 267 262 252 249 254 258 259 262 269 265 248 232 221 216 219 216 208 199 196 197 206 212 203 188 179 181 186 180 164 166 178 178 183 202 214 213 205 200 200 203 200 195 190 183 186 195 199 202 205 205 204 211 215 199 146 121 116 118 121 125 131 137 141 145 147 152 160 170 171 168 171 178 181 181
277 272 267 260 257 254 255 257 257 255 255 257 260 261 257 250 247 252 257 258 259 267 267 245 215 213 214 214 212 207 202 202 202 202 205 199 186 181 186 189 183 169 162 168 174 175 182 200 215 202 193 197 202 193 185 182 175 174 181 183 182 187 191 189 191 201 208 204 192 184 165 135 130 133 136 138 140 143 148 158 171 177 177 179 183 187 190
278 272 264 260 258 253 255 258 254 253 253 253 257 258 252 244 243 246 251 253 257 264 266 239 196 207 213 209 206 206 205 204 203 201 199 196 193 193 194 193 189 177 165 162 165 160 142 146 212 215 203 202 206 199 180 168 167 165 167 170 171 178 187 184 179 180 187 189 190 201 214 199 167 158 156 161 175 183 182 193 208 210 208 210 210 211 216
278 270 258 256 257 254 255 255 252 254 258 258 260 258 245 237 239 241 245 250 254 262 265 233 192 208 212 200 196 200 199 196 198 201 196 194 198 202 202 200 196 185 169 160 164 166 135 108 141 224 225 217 217 215 202 170 155 161 171 173 172 170 174 177 176 175 178 178 178 189 205 207 204 211 220 218 224 229 228 233 240 241 239 237 239 244 249
276 264 248 248 253 256 260 259 255 255 258 259 260 254 235 230 237 238 242 249 253 261 264 224 189 204 202 189 190 196 194 189 197 208 207 201 202 205 207 205 200 189 171 159 161 164 144 120 128 202 208 205 215 218 210 188 162 164 175 177 174 164 165 174 178 175 173 170 169 180 197 200 199 213 227 224 215 212 212 217 227 233 232 231 235 240 242
276 261 247 246 252 259 264 261 256 257 259 256 250 238 223 224 231 233 238 244 249 261 269 242 198 198 188 183 189 196 195 198 209 220 221 212 204 202 204 203 199 191 176 163 161 161 151 142 146 157 163 178 207 220 212 198 178 167 165 166 168 161 161 171 175 168 165 164 163 174 192 194 188 193 201 201 203 208 211 213 219 223 224 228 234 239 241
274 263 252 249 249 253 256 256 254 253 249 241 227 207 196 208 225 227 230 237 244 258 272 249 176 179 175 175 184 191 194 201 208 215 221 217 209 204 201 198 196 194 183 168 163 161 155 152 153 143 152 172 200 217 214 201 184 171 165 169 176 171 168 173 171 162 160 163 166 175 189 187 179 180 184 187 194 201 207 216 223 224 227 233 240 246 248
270 258 251 252 252 252 252 250 247 246 237 218 197 177 166 178 235 229 220 224 219 230 267 214 151 157 159 160 168 182 193 198 198 203 211 212 209 205 200 194 194 195 190 178 166 158 154 156 161 175 193 185 178 189 214 212 195 178 178 186 189 181 173 175 175 170 165 165 170 178 183 178 174 177 181 184 190 198 206 215 223 228 235 242 245 250 251
263 257 247 243 240 243 242 234 232 235 219 191 182 170 156 164 227 228 218 217 206 210 267 195 143 144 148 153 163 181 194 193 192 198 204 205 203 201 199 194 187 185 188 184 170 158 157 164 176 189 194 188 175 170 192 206 199 189 192 190 184 174 166 164 164 166 163 161 170 181 181 176 175 177 180 180 181 189 200 207 215 228 241 244 238 241 247
255 258 249 238 231 228 226 224 225 221 195 175 168 159 153 171 219 227 219 215 203 198 207 150 137 138 144 153 160 167 178 187 190 189 187 189 191 192 192 187 179 179 183 180 170 162 161 159 175 191 187 186 184 180 185 193 186 171 165 156 140 151 160 156 151 152 156 159 168 174 170 167 168 170 176 183 184 186 199 212 223 231 232 226 224 229 235
244 246 240 230 223 217 219 227 225 205 181 164 153 153 161 174 201 232 229 212 193 183 167 140 133 136 137 139 147 152 156 168 176 171 168 174 180 183 181 173 168 170 172 168 165 164 160 151 161 187 183 182 191 189 184 177 165 162 169 161 136 140 158 159 155 158 164 170 179 183 177 173 171 167 174 190 199 208 221 230 231 227 220 218 224 232 239
225 246 233 214 209 222 240 242 227 197 178 163 157 162 170 163 171 221 234 214 191 188 173 144 142 145 140 136 144 152 152 149 147 147 156 165 167 162 152 143 141 147 156 160 159 160 161 159 164 177 179 180 178 169 159 152 149 153 161 153 134 124 144 159 162 163 157 149 158 170 168 163 160 160 166 181 197 212 223 229 232 233 236 241 245 248 253
197 245 208 171 162 313 282 198 162 159 160 159 163 174 177 170 190 215 215 187 180 194 195 170 165 170 160 140 139 146 149 144 138 138 144 150 148 140 131 124 127 136 149 157 155 154 160 167 169 170 172 168 156 145 142 143 141 137 133 129 123 118 119 123 124 120 109 103 110 126 133 136 148 165 175 183 197 209 218 226 233 238 244 251 255 258 262
126 128 127 115 99 93 97 99 113 138 149 158 170 179 183 200 210 205 180 168 181 202 218 207 184 185 165 127 127 137 142 141 141 141 139 137 136 134 129 129 136 142 146 153 156 154 157 169 173 167 159 148 139 138 143 144 140 137 136 133 132 134 131 124 119 119 120 124 131 140 148 160 174 186 197 208 218 227 233 239 245 251 255 259 261 264 266
111 108 115 114 108 104 101 102 116 139 152 158 157 152 154 162 167 167 166 165 168 191 289 279 216 182 136 110 117 136 144 143 148 151 146 142 145 143 133 133 143 144 138 140 149 151 152 162 170 163 149 138 135 139 145 147 144 145 145 142 141 142 140 138 139 142 147 159 169 172 179 194 206 220 235 244 249 255 258 260 262 264 266 267 268 269 268
99 104 114 114 109 104 101 108 120 130 130 108 94 100 107 108 109 105 95 97 85 38 20 198 219 208 128 128 134 145 151 150 153 156 153 147 149 150 143 142 150 145 133 132 142 150 149 152 156 153 144 139 138 140 144 149 151 152 150 148 148 149 150 153 161 170 179 193 206 217 230 243 253 261 267 270 272 273 275 276 276 276 276 276 276 275 274
96 103 106 105 102 97 96 102 107 108 104 94 88 91 91 90 94 91 80 74 61 41 62 164 182 21 114 143 139 141 151 151 150 156 159 149 141 147 149 147 147 141 133 131 141 155 154 148 144 142 141 139 138 140 143 147 151 153 156 157 156 158 163 171 181 196 214 240 265 274 277 281 283 283 282 282 282 282 281 281 281 281 281 280 279 278 278
106 107 104 102 101 98 98 101 101 97 95 91 88 89 89 88 92 91 77 68 60 50 54 183 138 72 79 125 125 122 141 146 143 149 158 153 141 143 150 153 150 141 135 136 142 152 155 148 138 135 139 139 137 138 141 145 151 156 164 172 176 181 191 203 229 259 275 286 291 292 293 294 293 292 290 289 287 286 284 283 283 282 281 280 279 279 280
110 109 106 104 104 100 100 102 97 87 81 79 80 85 91 91 93 91 84 76 71 69 153 172 114 82 90 137 137 126 138 149 149 149 152 151 142 137 145 158 156 140 138 146 147 146 147 141 131 129 135 137 135 136 140 148 158 164 170 180 193 208 225 247 270 280 284 289 291 291 293 293 291 290 289 287 285 285 285 284 285 285 284 284 284 283 284
104 105 103 102 102 97 92 91 85 72 67 73 81 86 93 98 98 99 101 95 84 98 152 140 87 73 95 144 139 126 132 151 161 160 147 139 143 139 140 151 152 143 146 152 146 137 136 135 130 130 134 135 134 139 143 150 162 171 177 192 212 231 246 261 273 279 283 289 291 291 292 292 290 288 287 285 285 287 288 288 290 290 289 289 288 287 287
94 96 95 92 92 89 83 81 81 76 73 80 85 85 95 109 114 115 118 110 95 114 147 127 72 61 77 129 139 136 136 152 168 168 141 122 155 165 140 136 143 146 146 142 131 126 129 131 130 132 135 135 137 144 149 154 166 178 191 211 232 253 268 278 287 291 292 296 299 300 302 302 300 298 296 294 294 296 297 300 302 301 299 298 296 294 292
91 94 91 84 82 84 83 85 87 83 77 74 71 70 84 106 116 122 130 124 105 111 137 128 85 68 67 98 146 154 155 164 174 172 138 109 158 185 129 126 137 142 134 126 123 124 128 130 132 134 135 136 141 146 147 150 161 178 217 256 279 294 300 303 307 309 312 316 320 320 320 318 315 313 310 307 306 307 309 311 313 312 310 312 313 312 307
97 98 95 87 83 84 87 87 85 80 73 67 60 62 81 98 106 114 125 125 112 104 110 106 88 79 74 88 148 154 158 169 175 172 142 103 123 137 123 126 133 131 120 119 121 124 127 130 131 131 131 133 135 136 137 140 142 137 316 316 320 320 320 323 327 330 335 338 336 331 328 325 322 322 321 318 318 319 320 324 329 334 341 352 358 359 354
96 97 94 85 78 80 86 87 82 76 70 63 59 67 88 107 117 117 112 103 97 96 92 79 73 82 90 107 128 130 137 155 167 166 149 113 110 118 123 122 120 118 117 118 119 123 127 127 125 126 128 129 125 123 125 127 114 83 9 346 343 337 336 340 343 346 350 351 345 338 335 333 335 339 337 332 328 332 343 6 25 31 31 30 26 26 31
97 94 86 76 70 75 87 91 87 81 73 63 61 65 71 81 99 111 108 90 79 86 89 80 86 105 113 100 96 106 119 135 145 149 149 134 118 120 124 111 106 110 114 114 114 120 125 125 125 130 133 128 121 120 121 116 106 90 43 15 360 346 345 349 351 355 2 2 357 356 3 8 13 18 17 13 11 15 36 46 45 36 32 32 31 34 43
95 89 81 73 67 69 74 77 77 75 68 59 59 64 63 63 78 97 105 95 83 87 104 116 122 127 124 111 100 105 117 127 129 132 141 140 125 118 112 102 98 101 104 108 116 124 127 127 131 136 136 131 128 130 129 123 118 102 47 18 357 347 352 355 355 359 7 6 3 9 24 31 32 33 33 36 44 58 52 34 23 18 22 28 33 41 51
86 81 81 78 74 72 74 76 77 78 74 67 66 71 72 72 79 90 100 102 99 101 116 127 130 130 128 121 109 103 108 117 122 122 121 122 120 116 112 107 102 100 103 111 121 125 126 127 132 138 142 142 140 138 133 128 117 74 33 17 4 2 3 1 357 357 357 352 349 351 356 7 18 26 31 38 46 55 54 39 26 24 28 31 34 41 49
80 76 77 76 73 71 71 73 73 73 72 70 68 67 66 69 76 82 86 89 90 99 121 131 132 133 131 126 114 103 101 109 116 114 110 112 117 118 116 115 114 113 115 120 124 125 126 129 134 140 148 150 147 142 141 139 116 64 34 16 6 3 359 355 353 352 347 339 337 336 337 342 349 357 9 24 32 34 33 25 12 6 11 15 19 27 31
78 74 72 70 67 65 65 66 68 67 65 62 60 60 61 65 69 69 65 62 65 87 114 129 133 132 131 129 124 116 110 109 109 108 107 109 113 116 117 119 121 122 121 123 125 126 128 132 136 142 152 156 155 158 161 158 140 107 36 358 350 347 348 349 349 349 347 341 335 333 335 335 334 336 344 354 355 351 347 339 329 327 333 337 342 351 3
Height
3059 3058 3057 3056 3055 3054 3053 3052 3051 3050 3050 3051 3051 3049 3048 3048 3049 3049 3048 3047 3048 3047 3047 3048 3048 3047 3049 3051 3052 3053 3054 3054 3055 3057 3057 3058 3059 3060 3060 3061 3062 3064 3065 3067 3067 3067 3066 3066 3066 3067 3067 3069 3070 3072 3074 3075 3077 3078 3078 3080 3082 3083 3083 3084 3085 3086 3087 3089 3091 3093 3095 3098 3098 3099 3102 3104 3106 3108 3109 3111 3113 3115 3115 3116 3117 3115 3115
3055 3054 3053 3052 3051 3050 3049 3048 3047 3046 3046 3046 3046 3045 3044 3044 3045 3046 3044 3043 3044 3044 3043 3044 3045 3045 3046 3047 3047 3049 3050 3050 3052 3053 3054 3054 3055 3056 3056 3057 3059 3061 3062 3064 3063 3064 3064 3062 3062 3063 3063 3065 3067 3069 3071 3073 3074 3075 3076 3077 3080 3079 3078 3079 3082 3083 3084 3085 3086 3086 3088 3091 3091 3092 3096 3098 3101 3105 3107 3109 3111 3111 3110 3113 3113 3110 3111
3051 3050 3049 3048 3047 3047 3046 3045 3044 3043 3042 3042 3042 3041 3040 3040 3041 3042 3041 3040 3041 3040 3040 3040 3041 3041 3042 3042 3043 3045 3046 3047 3049 3050 3050 3051 3052 3052 3053 3054 3056 3057 3058 3059 3058 3060 3060 3059 3058 3059 3060 3061 3064 3066 3068 3069 3070 3071 3072 3075 3076 3075 3074 3075 3077 3078 3079 3079 3079 3079 3082 3085 3087 3088 3091 3094 3097 3100 3102 3105 3106 3105 3106 3108 3106 3105 3109
3047 3046 3045 3044 3043 3043 3042 3041 3040 3040 3038 3038 3039 3038 3036 3036 3037 3038 3038 3038 3037 3037 3036 3037 3037 3037 3038 3038 3040 3041 3042 3044 3046 3047 3046 3048 3049 3049 3050 3051 3052 3053 3054 3054 3054 3055 3056 3057 3055 3055 3056 3058 3060 3062 3064 3065 3066 3067 3068 3070 3071 3071 3070 3070 3071 3072 3073 3074 3076 3078 3081 3083 3083 3085 3087 3090 3093 3095 3099 3100 3100 3100 3103 3103 3101 3103 3107
3042 3042 3041 3040 3039 3039 3039 3038 3037 3036 3035 3034 3035 3035 3034 3033 3032 3033 3035 3035 3034 3034 3033 3034 3034 3034 3034 3035 3036 3038 3039 3041 3043 3044 3044 3045 3046 3046 3047 3048 3049 3049 3051 3051 3050 3051 3053 3054 3052 3051 3053 3055 3057 3059 3060 3062 3062 3063 3063 3064 3065 3067 3066 3067 3068 3069 3070 3072 3075 3078 3080 3080 3081 3083 3084 3087 3090 3092 3094 3094 3094 3097 3099 3097 3097 3102 3103
3038 3037 3036 3036 3035 3035 3035 3034 3034 3033 3032 3031 3031 3031 3031 3030 3029 3030 3031 3031 3031 3031 3031 3031 3031 3032 3032 3032 3033 3034 3037 3039 3040 3040 3041 3042 3043 3044 3043 3045 3046 3046 3049 3049 3047 3047 3049 3049 3048 3049 3050 3052 3054 3055 3057 3058 3059 3060 3059 3058 3060 3062 3063 3064 3066 3066 3067 3070 3072 3075 3076 3078 3079 3080 3082 3084 3086 3088 3089 3090 3092 3094 3094 3093 3096 3100 3100
3033 3033 3032 3031 3031 3031 3031 3030 3030 3030 3029 3028 3027 3027 3027 3027 3026 3027 3027 3026 3027 3028 3029 3028 3028 3029 3030 3029 3030 3031 3033 3035 3036 3037 3037 3039 3041 3041 3040 3042 3043 3044 3045 3044 3042 3043 3044 3043 3044 3046 3048 3050 3052 3052 3054 3055 3056 3057 3057 3056 3057 3059 3060 3062 3064 3064 3064 3066 3069 3071 3073 3074 3076 3077 3078 3081 3083 3084 3086 3087 3089 3090 3090 3091 3095 3096 3096
3029 3029 3028 3027 3027 3027 3027 3026 3026 3026 3025 3024 3024 3023 3024 3023 3023 3023 3023 3023 3023 3024 3025 3025 3025 3026 3027 3027 3027 3028 3030 3031 3032 3033 3034 3036 3038 3039 3038 3039 3040 3040 3040 3040 3038 3039 3040 3040 3042 3044 3045 3048 3050 3051 3051 3052 3053 3054 3055 3056 3057 3057 3058 3060 3062 3061 3060 3062 3065 3068 3069 3071 3072 3072 3074 3077 3079 3081 3082 3084 3085 3086 3087 3089 3092 3091 3092
3025 3025 3024 3023 3023 3023 3023 3023 3023 3022 3022 3021 3020 3020 3020 3020 3019 3020 3019 3019 3020 3021 3021 3022 3022 3023 3024 3024 3024 3025 3027 3028 3029 3029 3031 3033 3035 3036 3036 3036 3037 3036 3037 3037 3036 3037 3038 3038 3040 3042 3044 3046 3048 3049 3050 3050 3050 3051 3052 3054 3055 3057 3057 3058 3059 3057 3055 3057 3061 3063 3065 3068 3067 3066 3068 3072 3075 3077 3078 3080 3082 3083 3084 3086 3087 3087 3088
3020 3020 3019 3019 3019 3019 3019 3019 3019 3019 3018 3018 3017 3016 3016 3017 3017 3017 3016 3015 3017 3018 3018 3019 3019 3019 3021 3021 3021 3022 3024 3025 3026 3026 3028 3030 3032 3033 3034 3034 3033 3032 3033 3034 3034 3034 3035 3035 3037 3039 3040 3042 3045 3047 3048 3049 3050 3050 3051 3052 3053 3055 3056 3055 3056 3054 3051 3054 3058 3060 3062 3062 3059 3059 3063 3067 3070 3073 3075 3076 3078 3080 3082 3082 3082 3083 3086
3016 3015 3015 3015 3015 3015 3015 3015 3015 3015 3015 3015 3015 3013 3013 3014 3014 3014 3013 3012 3013 3015 3015 3015 3016 3016 3017 3018 3018 3019 3021 3022 3023 3023 3025 3027 3030 3031 3031 3031 3030 3029 3030 3031 3031 3031 3032 3034 3035 3035 3036 3037 3040 3043 3045 3047 3049 3050 3050 3050 3050 3052 3053 3053 3054 3052 3049 3051 3055 3057 3057 3054 3053 3057 3061 3063 3066 3069 3071 3072 3074 3076 3078 3079 3079 3081 3084
3011 3011 3011 3011 3010 3010 3010 3011 3011 3011 3010 3011 3011 3011 3010 3010 3011 3011 3010 3009 3009 3011 3012 3012 3013 3013 3014 3015 3015 3016 3017 3019 3020 3021 3021 3025 3028 3028 3028 3028 3027 3027 3028 3028 3028 3029 3030 3031 3032 3032 3033 3034 3037 3040 3043 3045 3047 3048 3049 3049 3049 3049 3051 3051 3051 3050 3048 3048 3051 3053 3051 3049 3052 3056 3058 3060 3063 3066 3068 3069 3071 3072 3074 3076 3077 3078 3080
3007 3007 3006 3006 3006 3005 3006 3006 3006 3006 3006 3006 3007 3007 3007 3007 3008 3008 3008 3006 3006 3008 3009 3009 3010 3010 3011 3011 3012 3013 3014 3016 3017 3018 3019 3022 3024 3025 3026 3025 3024 3024 3025 3025 3026 3027 3028 3029 3030 3029 3031 3033 3034 3037 3039 3042 3044 3046 3047 3048 3049 3048 3049 3049 3048 3048 3046 3045 3046 3048 3047 3048 3051 3052 3053 3056 3058 3061 3064 3065 3067 3069 3071 3072 3073 3074 3076
3003 3003 3002 3001 3001 3001 3001 3001 3002 3002 3002 3002 3003 3004 3004 3004 3004 3005 3006 3004 3003 3005 3006 3006 3007 3008 3008 3008 3009 3010 3011 3012 3013 3015 3016 3018 3020 3022 3023 3022 3021 3022 3023 3023 3024 3025 3026 3028 3028 3027 3028 3031 3033 3034 3036 3039 3042 3045 3046 3047 3048 3048 3048 3048 3047 3045 3044 3042 3042 3044 3045 3046 3047 3048 3049 3051 3054 3057 3060 3062 3064 3065 3066 3067 3069 3071 3073
2999 2998 2998 2998 2997 2997 2997 2998 2998 2998 2998 2998 2999 3000 3000 3000 3001 3002 3003 3002 3000 3002 3004 3004 3005 3005 3005 3006 3007 3007 3008 3010 3010 3011 3013 3015 3017 3019 3019 3019 3019 3020 3021 3021 3022 3023 3025 3026 3026 3025 3026 3028 3029 3030 3034 3037 3039 3042 3046 3047 3046 3047 3046 3046 3045 3043 3042 3041 3041 3042 3043 3043 3043 3045 3046 3048 3051 3054 3057 3060 3062 3063 3063 3064 3066 3068 3070
2995 2995 2994 2994 2994 2994 2994 2994 2994 2995 2995 2995 2996 2997 2997 2997 2998 2999 3000 2999 2998 2998 3001 3002 3002 3002 3003 3004 3005 3005 3006 3007 3007 3008 3010 3012 3014 3015 3016 3017 3018 3018 3018 3018 3019 3021 3023 3023 3024 3024 3024 3025 3026 3027 3031 3035 3036 3039 3044 3046 3045 3045 3045 3044 3043 3041 3039 3038 3038 3038 3039 3039 3041 3043 3044 3046 3049 3052 3055 3058 3060 3060 3061 3063 3065 3067 3068
2992 2992 2992 2991 2991 2991 2991 2992 2992 2992 2993 2993 2993 2993 2994 2994 2995 2995 2996 2997 2995 2995 2998 3000 3000 3000 3001 3002 3003 3003 3004 3005 3005 3006 3007 3009 3011 3012 3014 3015 3016 3016 3015 3015 3016 3018 3020 3021 3022 3023 3023 3024 3025 3025 3028 3033 3035 3037 3041 3044 3043 3042 3043 3042 3041 3038 3036 3035 3035 3035 3036 3037 3039 3040 3042 3044 3048 3050 3052 3054 3056 3058 3060 3062 3064 3066 3067
2989 2989 2989 2988 2988 2989 2989 2989 2990 2990 2990 2990 2990 2991 2991 2990 2991 2992 2993 2993 2992 2992 2996 2998 2997 2998 2999 3000 3001 3002 3002 3003 3003 3004 3005 3007 3008 3009 3011 3012 3013 3013 3013 3014 3015 3017 3018 3019 3020 3021 3022 3023 3024 3023 3025 3029 3033 3035 3039 3041 3040 3039 3039 3039 3038 3037 3035 3034 3033 3033 3034 3035 3037 3038 3040 3044 3047 3048 3049 3050 3053 3056 3057 3060 3062 3064 3065
2986 2986 2986 2986 2986 2986 2986 2987 2987 2988 2988 2988 2988 2988 2988 2987 2988 2989 2990 2990 2989 2989 2992 2995 2995 2996 2997 2997 2998 3000 3000 3000 3001 3001 3002 3003 3005 3007 3009 3010 3010 3010 3010 3012 3013 3015 3016 3017 3018 3019 3020 3021 3023 3023 3023 3025 3029 3033 3036 3039 3039 3037 3037 3038 3038 3037 3036 3034 3032 3031 3032 3034 3035 3037 3039 3042 3044 3045 3046 3049 3052 3055 3057 3060 3061 3062 3064
2983 2983 2984 2983 2984 2984 2984 2985 2985 2985 2986 2986 2985 2985 2986 2985 2985 2985 2986 2987 2986 2986 2989 2992 2993 2994 2994 2994 2996 2998 2998 2998 2999 3000 3000 3001 3002 3004 3006 3007 3007 3007 3008 3009 3011 3012 3013 3013 3015 3017 3018 3020 3022 3023 3023 3023 3026 3030 3033 3036 3038 3037 3037 3038 3038 3037 3036 3034 3033 3032 3032 3033 3034 3036 3038 3041 3042 3043 3045 3047 3050 3053 3057 3060 3059 3060 3064
2981 2981 2981 2981 2981 2982 2982 2983 2983 2983 2984 2984 2983 2983 2983 2983 2982 2982 2984 2985 2984 2984 2987 2989 2990 2991 2992 2992 2994 2995 2995 2996 2997 2998 2998 2999 3000 3001 3003 3004 3005 3005 3006 3008 3009 3010 3011 3012 3013 3015 3016 3018 3020 3021 3022 3022 3024 3027 3030 3033 3035 3036 3037 3038 3039 3039 3037 3034 3035 3035 3033 3033 3034 3036 3038 3040 3042 3044 3046 3048 3049 3051 3055 3057 3056 3057 3062
2979 2979 2979 2979 2979 2980 2980 2980 2981 2981 2981 2982 2981 2980 2981 2981 2980 2980 2981 2982 2981 2982 2985 2987 2987 2988 2989 2990 2991 2992 2993 2994 2995 2995 2996 2997 2998 2999 3001 3003 3003 3002 3004 3007 3008 3009 3010 3011 3012 3013 3015 3017 3018 3019 3020 3021 3023 3025 3027 3029 3032 3035 3037 3038 3039 3040 3037 3035 3035 3036 3034 3034 3035 3036 3038 3040 3042 3045 3047 3049 3049 3050 3053 3056 3056 3056 3059
2977 2977 2977 2977 2977 2977 2978 2978 2979 2979 2979 2980 2979 2978 2979 2979 2978 2978 2979 2980 2980 2981 2982 2983 2984 2985 2987 2988 2989 2990 2991 2992 2993 2994 2995 2996 2996 2997 2999 3001 3001 3001 3003 3006 3007 3009 3010 3011 3011 3012 3014 3015 3016 3018 3019 3020 3021 3023 3024 3026 3030 3033 3035 3036 3037 3039 3039 3037 3037 3037 3038 3037 3037 3038 3039 3041 3043 3045 3048 3050 3052 3052 3054 3056 3057 3057 3058
2975 2974 2974 2975 2975 2975 2976 2976 2977 2977 2977 2978 2977 2977 2977 2977 2977 2976 2977 2978 2979 2978 2978 2980 2981 2983 2984 2986 2986 2987 2989 2991 2992 2993 2993 2994 2995 2997 2998 3000 3000 3001 3003 3005 3006 3008 3009 3010 3011 3012 3013 3013 3014 3016 3018 3018 3019 3021 3022 3024 3027 3030 3031 3032 3034 3036 3038 3039 3039 3040 3041 3041 3041 3041 3042 3043 3044 3046 3048 3051 3053 3054 3056 3057 3058 3058 3059
2973 2972 2972 2973 2973 2974 2974 2974 2975 2975 2976 2976 2975 2975 2975 2975 2975 2975 2976 2977 2977 2976 2976 2977 2979 2980 2981 2982 2984 2986 2988 2989 2990 2991 2992 2993 2995 2997 2998 2999 2999 3001 3002 3004 3006 3007 3008 3009 3010 3011 3011 3012 3013 3015 3017 3017 3018 3019 3021 3023 3025 3027 3028 3029 3030 3032 3035 3038 3040 3041 3043 3044 3045 3045 3045 3045 3046 3047 3049 3052 3054 3056 3056 3057 3059 3060 3061
2971 2971 2971 2971 2972 2972 2972 2973 2973 2973 2974 2974 2973 2973 2973 2974 2974 2974 2975 2975 2975 2975 2975 2975 2977 2978 2978 2980 2983 2985 2986 2987 2989 2990 2992 2993 2994 2996 2997 2997 2998 3000 3001 3002 3005 3006 3007 3008 3010 3010 3011 3011 3013 3014 3015 3016 3017 3017 3019 3020 3022 3024 3026 3027 3027 3028 3030 3033 3035 3038 3042 3045 3046 3046 3046 3046 3047 3048 3050 3052 3054 3056 3057 3059 3060 3061 3062
2970 2969 2969 2970 2970 2971 2971 2971 2971 2972 2972 2972 2971 2971 2972 2972 2973 2973 2974 2974 2974 2974 2974 2974 2975 2976 2977 2979 2981 2982 2984 2986 2988 2989 2991 2992 2994 2994 2995 2996 2998 2999 3000 3001 3003 3006 3007 3008 3009 3010 3010 3011 3012 3014 3014 3014 3015 3015 3016 3018 3020 3022 3024 3025 3024 3024 3025 3026 3029 3032 3035 3039 3043 3046 3046 3047 3048 3049 3050 3052 3054 3055 3057 3059 3060 3060 3061
2968 2968 2968 2968 2969 2969 2970 2970 2970 2970 2970 2970 2970 2970 2970 2971 2972 2973 2973 2974 2974 2974 2973 2974 2974 2975 2977 2979 2980 2982 2984 2985 2987 2988 2990 2991 2992 2993 2994 2996 2997 2998 2999 3000 3002 3005 3007 3008 3010 3011 3012 3012 3013 3015 3014 3013 3013 3014 3015 3016 3018 3019 3021 3024 3024 3024 3024 3025 3028 3030 3031 3034 3038 3042 3045 3047 3049 3050 3051 3053 3055 3056 3057 3058 3059 3059 3059
2967 2967 2967 2968 2968 2968 2968 2969 2969 2969 2969 2969 2969 2969 2969 2970 2971 2972 2973 2973 2973 2973 2973 2973 2974 2975 2976 2978 2980 2981 2983 2985 2986 2988 2989 2990 2991 2992 2994 2995 2996 2997 2998 3000 3002 3004 3007 3008 3010 3011 3013 3013 3014 3014 3014 3013 3012 3013 3015 3016 3017 3019 3020 3022 3024 3025 3025 3026 3027 3029 3031 3033 3035 3038 3041 3044 3047 3050 3051 3054 3055 3056 3056 3057 3057 3057 3058
2966 2966 2966 2967 2967 2967 2967 2967 2967 2967 2967 2967 2968 2968 2969 2971 2971 2972 2972 2973 2973 2973 2973 2973 2974 2975 2976 2978 2980 2982 2983 2984 2986 2987 2988 2989 2990 2992 2993 2995 2996 2996 2998 2999 3002 3004 3006 3008 3010 3011 3012 3013 3013 3013 3013 3013 3012 3013 3014 3015 3017 3018 3019 3021 3023 3025 3026 3026 3027 3029 3030 3032 3033 3035 3038 3041 3045 3048 3050 3052 3053 3054 3054 3055 3055 3056 3056
2966 2966 2966 2966 2966 2966 2966 2966 2966 2966 2966 2966 2967 2968 2970 2971 2971 2972 2972 2972 2973 2973 2973 2973 2974 2975 2977 2979 2980 2981 2983 2984 2985 2986 2987 2988 2989 2991 2993 2994 2995 2996 2998 2999 3002 3004 3006 3008 3010 3011 3011 3012 3012 3012 3012 3012 3011 3011 3013 3014 3015 3017 3018 3020 3022 3024 3025 3026 3028 3028 3029 3030 3032 3034 3037 3040 3043 3046 3047 3049 3050 3051 3052 3053 3053 3054 3054
2965 2965 2965 2965 2965 2965 2965 2965 2965 2965 2965 2966 2967 2968 2970 2971 2971 2972 2972 2972 2973 2973 2974 2974 2975 2976 2978 2979 2980 2981 2982 2983 2984 2986 2987 2988 2989 2991 2992 2994 2995 2996 2997 2999 3001 3004 3006 3009 3010 3011 3010 3010 3010 3010 3011 3011 3011 3012 3013 3014 3016 3018 3019 3019 3020 3023 3024 3026 3028 3029 3029 3030 3032 3034 3036 3039 3041 3044 3045 3047 3048 3050 3050 3051 3051 3052 3052
2964 2965 2965 2965 2965 2964 2964 2964 2964 2964 2965 2966 2967 2969 2970 2971 2971 2972 2972 2972 2973 2974 2974 2974 2975 2976 2978 2979 2980 2981 2982 2983 2984 2985 2986 2987 2989 2991 2992 2993 2994 2995 2997 2999 3001 3004 3007 3009 3010 3010 3010 3010 3010 3010 3011 3012 3013 3013 3014 3014 3015 3018 3020 3021 3021 3023 3024 3026 3028 3030 3030 3030 3031 3034 3036 3039 3041 3042 3044 3045 3047 3048 3048 3049 3050 3050 3051
2964 2964 2964 2964 2964 2964 2964 2964 2964 2965 2966 2966 2968 2969 2970 2971 2972 2972 2972 2972 2973 2974 2974 2975 2976 2977 2978 2979 2980 2981 2982 2984 2985 2986 2987 2988 2989 2991 2992 2993 2994 2995 2997 2999 3001 3004 3007 3008 3009 3009 3010 3010 3010 3011 3013 3014 3014 3014 3015 3015 3015 3018 3021 3023 3024 3024 3025 3026 3028 3030 3031 3031 3032 3034 3036 3039 3040 3041 3042 3043 3044 3045 3046 3047 3048 3049 3050
2964 2964 2964 2964 2965 2965 2965 2965 2965 2966 2967 2967 2968 2969 2970 2971 2973 2973 2972 2972 2973 2974 2974 2975 2976 2976 2977 2979 2980 2981 2983 2984 2985 2986 2987 2988 2990 2991 2992 2993 2995 2996 2998 3000 3002 3004 3006 3008 3008 3009 3010 3010 3011 3013 3014 3015 3015 3015 3015 3016 3017 3020 3023 3025 3027 3028 3028 3028 3029 3032 3033 3035 3035 3036 3037 3039 3040 3041 3042 3043 3043 3044 3045 3047 3048 3049 3049
2965 2965 2965 2965 2965 2965 2966 2966 2966 2967 2968 2969 2969 2970 2971 2971 2972 2972 2972 2973 2974 2974 2974 2975 2976 2977 2978 2978 2979 2982 2983 2984 2985 2987 2988 2989 2990 2991 2993 2994 2995 2997 2998 3000 3002 3004 3006 3007 3009 3010 3011 3012 3013 3014 3016 3016 3016 3017 3018 3019 3021 3023 3026 3028 3030 3031 3031 3031 3032 3034 3036 3037 3038 3039 3039 3040 3041 3042 3042 3043 3043 3044 3045 3046 3047 3047 3048
2966 2966 2966 2966 2966 2966 2967 2967 2968 2968 2969 2970 2970 2971 2971 2972 2972 2972 2973 2974 2974 2975 2975 2976 2977 2978 2979 2979 2979 2981 2983 2984 2986 2987 2989 2990 2991 2992 2994 2995 2996 2997 2998 3000 3002 3004 3006 3008 3010 3010 3012 3013 3014 3016 3017 3018 3018 3019 3021 3023 3024 3027 3028 3030 3031 3033 3034 3035 3036 3037 3038 3038 3039 3040 3040 3040 3041 3041 3042 3042 3042 3043 3044 3044 3045 3045 3045
2967 2967 2967 2967 2968 2968 2968 2969 2969 2970 2970 2971 2971 2971 2972 2972 2973 2973 2974 2975 2976 2976 2977 2978 2978 2978 2979 2979 2980 2981 2983 2984 2986 2988 2989 2990 2992 2993 2994 2996 2997 2998 2999 3000 3002 3004 3006 3009 3010 3011 3013 3014 3014 3016 3018 3020 3021 3022 3024 3026 3027 3029 3031 3032 3034 3035 3036 3038 3038 3038 3039 3039 3039 3039 3039 3040 3040 3040 3040 3040 3040 3041 3041 3041 3042 3041 3041
2968 2968 2968 2969 2969 2969 2970 2970 2970 2971 2971 2971 2972 2972 2973 2973 2974 2975 2976 2977 2977 2978 2978 2979 2979 2979 2979 2979 2980 2982 2983 2984 2986 2988 2989 2991 2992 2993 2995 2996 2998 2999 2999 3001 3003 3005 3006 3008 3010 3012 3014 3016 3016 3017 3019 3021 3022 3023 3025 3027 3029 3030 3032 3033 3035 3036 3037 3038 3038 3038 3038 3038 3038 3038 3038 3038 3038 3038 3037 3037 3037 3037 3037 3037 3037 3036 3036
2970 2970 2970 2970 2970 2971 2971 2971 2972 2972 2972 2973 2973 2974 2974 2975 2976 2976 2977 2978 2978 2978 2979 2980 2980 2980 2980 2980 2980 2982 2983 2985 2986 2988 2990 2991 2993 2994 2995 2996 2998 2999 3000 3002 3004 3005 3006 3008 3011 3012 3015 3017 3019 3019 3020 3021 3023 3024 3026 3027 3028 3030 3031 3032 3033 3035 3036 3036 3036 3036 3036 3036 3036 3036 3035 3035 3035 3034 3034 3033 3032 3032 3032 3032 3031 3031 3031
2971 2971 2971 2971 2972 2972 2972 2973 2973 2974 2974 2975 2975 2975 2976 2977 2977 2978 2978 2979 2979 2979 2980 2981 2981 2981 2981 2981 2981 2983 2984 2985 2986 2988 2990 2992 2993 2994 2995 2996 2998 3000 3001 3003 3005 3006 3007 3009 3012 3014 3016 3019 3020 3021 3021 3023 3024 3025 3026 3027 3028 3029 3030 3031 3032 3033 3034 3034 3034 3034 3033 3033 3032 3032 3032 3031 3030 3030 3029 3029 3028 3028 3028 3027 3027 3027 3026
2973 2973 2973 2973 2974 2974 2974 2975 2975 2976 2976 2976 2977 2977 2978 2978 2979 2979 2979 2980 2980 2981 2982 2982 2982 2981 2982 2982 2982 2984 2985 2986 2987 2989 2991 2992 2993 2994 2995 2997 2998 3000 3002 3004 3005 3006 3008 3010 3013 3016 3018 3020 3021 3022 3023 3024 3025 3026 3026 3027 3028 3029 3030 3031 3031 3032 3032 3032 3031 3031 3031 3030 3029 3029 3028 3027 3027 3026 3026 3025 3025 3024 3024 3023 3023 3023 3022
2975 2975 2976 2976 2976 2976 2977 2977 2977 2978 2978 2978 2978 2979 2979 2980 2980 2980 2981 2981 2981 2982 2983 2983 2983 2983 2984 2984 2984 2985 2987 2988 2989 2990 2991 2993 2994 2995 2995 2996 2998 3000 3002 3004 3005 3007 3009 3012 3015 3017 3019 3021 3022 3023 3024 3025 3026 3027 3027 3028 3029 3029 3030 3030 3030 3030 3030 3029 3029 3028 3028 3027 3026 3025 3025 3024 3023 3022 3022 3022 3021 3021 3020 3019 3019 3019 3018
2977 2978 2978 2978 2979 2979 2979 2980 2980 2980 2980 2980 2980 2981 2981 2981 2982 2982 2982 2983 2983 2983 2985 2985 2985 2985 2986 2987 2987 2987 2988 2990 2991 2992 2992 2993 2995 2995 2995 2996 2998 3000 3001 3003 3006 3009 3011 3014 3016 3018 3020 3021 3023 3024 3025 3026 3027 3027 3028 3028 3029 3029 3029 3029 3029 3028 3027 3027 3026 3025 3025 3024 3023 3022 3021 3020 3020 3019 3018 3018 3018 3017 3017 3016 3016 3015 3015
2980 2981 2981 2981 2981 2981 2981 2981 2982 2982 2982 2983 2983 2983 2982 2982 2983 2983 2984 2985 2985 2985 2986 2987 2987 2988 2988 2989 2989 2989 2990 2990 2992 2994 2994 2995 2995 2996 2995 2996 2999 3001 3001 3003 3007 3011 3013 3015 3017 3018 3020 3021 3023 3024 3025 3026 3027 3027 3027 3028 3028 3028 3027 3027 3026 3026 3025 3024 3024 3023 3022 3021 3020 3019 3018 3018 3017 3017 3016 3016 3016 3015 3014 3014 3013 3013 3012
2983 2983 2983 2983 2983 2983 2983 2983 2984 2984 2984 2985 2985 2984 2984 2984 2984 2985 2986 2987 2987 2987 2988 2989 2989 2989 2990 2990 2990 2990 2991 2992 2993 2995 2996 2997 2997 2998 2997 2998 3000 3002 3003 3004 3008 3012 3014 3015 3017 3018 3019 3021 3023 3024 3025 3026 3026 3026 3027 3027 3026 3026 3026 3025 3025 3024 3024 3023 3022 3022 3021 3020 3019 3018 3017 3017 3016 3016 3015 3015 3014 3014 3013 3013 3012 3012 3011
2986 2986 2985 2985 2985 2986 2986 2986 2986 2987 2987 2987 2987 2986 2986 2986 2987 2987 2988 2989 2989 2989 2990 2990 2991 2991 2992 2992 2992 2991 2992 2994 2995 2997 2998 2998 2999 3000 3000 3000 3000 3002 3004 3006 3009 3012 3014 3016 3018 3019 3021 3022 3023 3024 3025 3025 3026 3026 3026 3026 3026 3026 3025 3024 3024 3024 3023 3023 3022 3021 3020 3019 3018 3017 3017 3016 3015 3015 3015 3015 3014 3014 3013 3013 3012 3011 3011
2988 2988 2988 2987 2988 2989 2989 2988 2988 2988 2989 2989 2989 2988 2988 2987 2987 2988 2990 2991 2991 2991 2992 2992 2993 2993 2994 2995 2994 2993 2994 2996 2997 2998 2999 3000 3000 3001 3002 3001 3001 3003 3006 3009 3011 3013 3015 3018 3019 3021 3022 3023 3024 3024 3025 3026 3026 3027 3027 3027 3026 3026 3025 3025 3024 3024 3023 3023 3022 3021 3020 3019 3018 3017 3017 3016 3015 3015 3015 3015 3015 3014 3014 3013 3013 3012 3011
2991 2990 2990 2991 2991 2992 2992 2991 2990 2989 2990 2991 2991 2990 2990 2989 2988 2989 2991 2992 2992 2992 2993 2993 2994 2994 2995 2996 2996 2996 2997 2998 2999 3000 3001 3002 3002 3003 3003 3003 3004 3006 3010 3012 3014 3015 3017 3019 3021 3022 3023 3024 3024 3025 3026 3026 3027 3027 3027 3027 3026 3026 3025 3025 3024 3024 3023 3023 3022 3022 3021 3020 3019 3018 3017 3016 3016 3016 3016 3016 3015 3015 3014 3014 3013 3013 3012
2993 2993 2994 2994 2994 2994 2995 2994 2993 2992 2993 2993 2992 2992 2991 2991 2991 2991 2992 2993 2993 2994 2994 2994 2995 2995 2996 2997 2998 2998 2999 3000 3001 3002 3003 3004 3005 3005 3006 3007 3008 3010 3013 3015 3016 3017 3018 3020 3021 3022 3023 3024 3025 3025 3026 3026 3026 3026 3026 3026 3026 3025 3025 3025 3025 3024 3024 3023 3023 3022 3021 3021 3020 3019 3018 3018 3017 3017 3017 3016 3016 3015 3015 3014 3014 3013 3013
2996 2996 2996 2997 2997 2997 2997 2997 2996 2996 2996 2995 2995 2994 2994 2993 2993 2993 2993 2994 2994 2995 2995 2996 2996 2997 2997 2998 2999 3000 3001 3002 3003 3004 3005 3006 3008 3008 3009 3010 3012 3013 3015 3016 3017 3019 3020 3021 3022 3023 3024 3025 3025 3025 3026 3026 3026 3027 3026 3026 3026 3026 3025 3025 3025 3024 3024 3023 3023 3022 3022 3021 3020 3020 3019 3018 3018 3017 3017 3017 3016 3015 3015 3014 3014 3013 3013
2999 3000 3000 3000 3000 3000 3000 2999 2999 2998 2998 2998 2998 2997 2996 2996 2995 2995 2996 2996 2997 2997 2997 2998 2998 2999 2999 3000 3001 3002 3003 3004 3005 3006 3007 3009 3010 3011 3012 3013 3014 3015 3017 3018 3019 3020 3021 3022 3023 3023 3024 3024 3025 3025 3026 3026 3027 3027 3027 3027 3027 3026 3026 3025 3025 3024 3024 3023 3022 3022 3021 3021 3020 3019 3019 3018 3018 3017 3017 3017 3016 3015 3015 3014 3013 3013 3013